Вернуться в каталог

COSMOS 2251 DEB

АктивенLEO
NORAD 35724·DEBRIS·🇷🇺 Russia

Запущен Jun 16, 1993 с Plesetsk Cosmodrome

Loading…

Ближайшие Пролёты (ближайшие 24 часа)

TLE

СвежийSource: Space-Track

Эпоха: Sep 14, 2026, 01:57 UTC

1 35724U 93036AQV 26257.08169581  .00000508  00000-0  11263-3 0  9991
2 35724  74.0318 138.3808 0061020 222.9774 136.6617 14.58737431915434

Отслеживайте COSMOS 2251 DEB в реальном времени с AllMySat

Download on the App Store